Location: Unspecified
(49.8670°N, 0.0000°E)
Time: 21:05:24
(UTC+00:00)

Vanguard 1 - Pass Details

Date: 28 June 2019
Orbit: 655 x 3829 km, 34.2° (Epoch: 20 August)

Event Time Altitude Azimuth Distance (km) Brightness Sun altitude
Rises 22:40:16 0° 200° (SSW) 7,845 14.2 -14.6°
Reaches altitude 10° 22:47:15 10° 189° (S) 6,923 13.8 -14.9°
Maximum altitude 23:03:23 25° 145° (SE) 5,388 13.2 -15.7°
Drops below altitude 10° 23:16:38 10° 100° (E) 5,694 13.7 -16.1°
Sets 23:21:27 0° 88° (E) 6,259 14.1 -16.3°
